This demonstration page uses our WeatherBlox Daily Observations layout. Learn more.

38.80484, -77.04692

Hourly Observations for February 22, 2019

Temp ( °F °C ) Dew Point ( °F °C ) Humidity (%) Winds ( mph kmh ) Pressure ( in mb ) Visibility ( mi km ) Precip ( " mm )
12:52 am 00:52 Cloudy 50 10 26 -3.3 39 39 NNW 10 17 30.21 1023 10 16.09344 0 0
1:52 am 01:52 Cloudy with Light Rain 50 10 29 -1.7 44 44 WNW 9 15 30.24 1024 10 16.09344 0.001 0.001
2:52 am 02:52 Cloudy with Light Rain 46 7.8 35 1.7 66 66 S 5 7 30.24 1024 10 16.09344 0.01 0.254
3:52 am 03:52 Cloudy 44 6.7 37 2.8 76 76 SSW 6 9 30.24 1024 10 16.09344 0.01 0.254
4:52 am 04:52 Cloudy 44 6.7 37 2.8 76 76 SW 3 6 30.27 1025 10 16.09344 0 0
5:52 am 05:52 Cloudy 45 7.2 38 3.3 77 77 Calm 30.3 1026 10 16.09344 0.001 0.001
6:52 am 06:52 Cloudy 46 7.8 32 0 58 58 N 8 13 30.33 1027 10 16.09344 0 0
7:52 am 07:52 Cloudy 47 8.3 27 -2.8 46 46 NNE 7 11 30.36 1028 10 16.09344 0 0
8:52 am 08:52 Cloudy 47 8.3 29 -1.7 50 50 N 8 13 30.39 1029 10 16.09344 0 0
9:52 am 09:52 Cloudy 47 8.3 28 -2.2 48 48 N 8 13 30.39 1029 10 16.09344 0 0
10:52 am 10:52 Cloudy 48 8.9 30 -1.1 50 50 N 8 13 30.42 1030 10 16.09344 0 0
11:52 am 11:52 Cloudy 49 9.4 25 -3.9 39 39 Calm 30.39 1029 10 16.09344 0 0
12:52 pm 12:52 Cloudy 50 10 28 -2.2 43 43 N 6 9 30.39 1029 10 16.09344 0 0
1:52 pm 13:52 Cloudy 50 10 27 -2.8 41 41 N 5 7 30.36 1028 10 16.09344 0 0
2:52 pm 14:52 Cloudy 50 10 27 -2.8 41 41 WNW 6 9 30.39 1029 10 16.09344 0 0
3:52 pm 15:52 Cloudy 49 9.4 29 -1.7 46 46 NNW 7 11 30.39 1029 10 16.09344 0 0
4:52 pm 16:52 Cloudy 48 8.9 28 -2.2 46 46 NW 8 13 30.39 1029 10 16.09344 0 0
5:52 pm 17:52 Cloudy 47 8.3 29 -1.7 50 50 NNW 9 15 30.39 1029 10 16.09344 0 0
6:52 pm 18:52 Cloudy 46 7.8 29 -1.7 51 51 NNW 8 13 30.42 1030 10 16.09344 0 0
7:52 pm 19:52 Cloudy 46 7.8 28 -2.2 50 50 NNW 7 11 30.42 1030 10 16.09344 0 0
8:52 pm 20:52 Cloudy 45 7.2 29 -1.7 54 54 N 3 6 30.45 1031 10 16.09344 0 0
9:52 pm 21:52 Cloudy 44 6.7 31 -0.6 60 60 ESE 3 6 30.45 1031 10 16.09344 0 0
10:52 pm 22:52 Cloudy 44 6.7 32 0 63 63 ENE 3 6 30.45 1031 10 16.09344 0 0
11:52 pm 23:52 Cloudy 43 6.1 32 0 65 65 ENE 5 7 30.42 1030 10 16.09344 0 0

Powered by AerisWeather